Time,TemperatureF,DewpointF,PressureIn,WindDirection,WindDirectionDegrees,WindSpeedMPH,WindSpeedGustMPH,Humidity,HourlyPrecipIn,Conditions,Clouds,dailyrainin,SoftwareType,DateUTC
2013-01-06 00:00:00,7.0,7.0,29.64,NNE,22,1.0,7.0,100,0.00,,,0.00,Weather View 32 v70,2013-01-06 05:00:00,
2013-01-06 00:02:00,7.0,7.0,29.64,NNE,22,2.0,7.0,100,0.00,,,0.00,Weather View 32 v70,2013-01-06 05:02:00,
2013-01-06 00:03:00,7.0,7.0,29.64,NNE,22,2.0,7.0,100,0.00,,,0.00,Weather View 32 v70,2013-01-06 05:03:00,
2013-01-06 00:08:00,7.0,7.0,29.64,NNE,22,0.0,7.0,100,0.00,,,0.00,Weather View 32 v70,2013-01-06 05:08:00,
2013-01-06 00:13:00,6.0,6.0,29.64,NNE,22,0.0,7.0,100,0.00,,,0.00,Weather View 32 v70,2013-01-06 05:13:00,
2013-01-06 00:18:00,6.0,6.0,29.64,NNE,22,0.0,7.0,100,0.00,,,0.00,Weather View 32 v70,2013-01-06 05:18:00,
2013-01-06 00:23:00,7.0,7.0,29.64,NNE,22,4.0,7.0,100,0.00,,,0.00,Weather View 32 v70,2013-01-06 05:23:00,
2013-01-06 00:28:00,7.0,7.0,29.61,NNE,22,1.0,7.0,100,0.00,,,0.00,Weather View 32 v70,2013-01-06 05:28:00,
2013-01-06 00:33:00,7.0,7.0,29.61,NNE,22,0.0,7.0,100,0.00,,,0.00,Weather View 32 v70,2013-01-06 05:33:00,
2013-01-06 00:38:00,7.0,7.0,29.65,NNE,22,3.0,7.0,100,0.00,,,0.00,Weather View 32 v70,2013-01-06 05:38:00,
2013-01-06 00:43:00,7.0,7.0,29.64,NNE,22,0.0,5.0,100,0.00,,,0.00,Weather View 32 v70,2013-01-06 05:43:00,
2013-01-06 00:48:00,7.0,7.0,29.65,NNE,22,0.0,5.0,100,0.00,,,0.00,Weather View 32 v70,2013-01-06 05:48:00,
2013-01-06 00:53:00,7.0,7.0,29.64,NNE,22,0.0,5.0,100,0.00,,,0.00,Weather View 32 v70,2013-01-06 05:53:00,
2013-01-06 00:58:00,7.0,7.0,29.65,NNE,22,0.0,5.0,100,0.00,,,0.00,Weather View 32 v70,2013-01-06 05:58:00,
2013-01-06 01:03:00,7.0,7.0,29.65,NNE,22,0.0,5.0,100,0.00,,,0.00,Weather View 32 v70,2013-01-06 06:03:00,
2013-01-06 01:08:00,7.0,7.0,29.64,NNE,22,0.0,5.0,100,0.00,,,0.00,Weather View 32 v70,2013-01-06 06:08:00,
2013-01-06 01:13:00,7.0,7.0,29.64,NNE,22,0.0,5.0,100,0.00,,,0.00,Weather View 32 v70,2013-01-06 06:13:00,
2013-01-06 01:18:00,7.0,7.0,29.64,NNE,22,0.0,5.0,100,0.00,,,0.00,Weather View 32 v70,2013-01-06 06:18:00,
2013-01-06 01:23:00,7.0,7.0,29.63,NNE,22,0.0,5.0,100,0.00,,,0.00,Weather View 32 v70,2013-01-06 06:23:00,
2013-01-06 01:28:00,7.0,7.0,29.63,NNE,22,0.0,5.0,100,0.00,,,0.00,Weather View 32 v70,2013-01-06 06:28:00,
2013-01-06 01:33:00,7.0,7.0,29.62,NNE,22,0.0,5.0,100,0.00,,,0.00,Weather View 32 v70,2013-01-06 06:33:00,
2013-01-06 01:38:00,7.0,7.0,29.61,NNE,22,0.0,5.0,100,0.00,,,0.00,Weather View 32 v70,2013-01-06 06:38:00,
2013-01-06 01:43:00,6.0,6.0,29.62,NNE,22,4.0,5.0,100,0.00,,,0.00,Weather View 32 v70,2013-01-06 06:43:00,
2013-01-06 01:48:00,6.0,6.0,29.61,NNE,22,0.0,5.0,100,0.00,,,0.00,Weather View 32 v70,2013-01-06 06:48:00,
2013-01-06 01:53:00,6.0,6.0,29.61,NNE,22,2.0,5.0,100,0.00,,,0.00,Weather View 32 v70,2013-01-06 06:53:00,
2013-01-06 01:58:00,6.0,6.0,29.60,WNW,292,2.0,5.0,100,0.00,,,0.00,Weather View 32 v70,2013-01-06 06:58:00,
2013-01-06 02:03:00,6.0,6.0,29.60,West,270,0.0,5.0,100,0.00,,,0.00,Weather View 32 v70,2013-01-06 07:03:00,
2013-01-06 02:08:00,6.0,6.0,29.61,West,270,0.0,5.0,100,0.00,,,0.00,Weather View 32 v70,2013-01-06 07:08:00,
2013-01-06 02:13:00,6.0,6.0,29.61,West,270,0.0,5.0,100,0.00,,,0.00,Weather View 32 v70,2013-01-06 07:13:00,
2013-01-06 02:18:00,5.0,5.0,29.61,West,270,0.0,5.0,100,0.00,,,0.00,Weather View 32 v70,2013-01-06 07:18:00,
2013-01-06 02:23:00,5.0,5.0,29.61,WSW,247,2.0,5.0,100,0.00,,,0.00,Weather View 32 v70,2013-01-06 07:23:00,
2013-01-06 02:28:00,5.0,5.0,29.60,ENE,67,1.0,5.0,100,0.00,,,0.00,Weather View 32 v70,2013-01-06 07:28:00,
2013-01-06 02:33:00,5.0,5.0,29.60,ENE,67,1.0,5.0,100,0.00,,,0.00,Weather View 32 v70,2013-01-06 07:33:00,
2013-01-06 02:38:00,5.0,5.0,29.61,NNE,22,4.0,5.0,100,0.00,,,0.00,Weather View 32 v70,2013-01-06 07:38:00,
2013-01-06 02:43:00,5.0,5.0,29.59,North,360,2.0,5.0,100,0.00,,,0.00,Weather View 32 v70,2013-01-06 07:43:00,
2013-01-06 02:48:00,4.0,4.0,29.61,North,360,1.0,5.0,100,0.00,,,0.00,Weather View 32 v70,2013-01-06 07:48:00,
2013-01-06 02:53:00,4.0,4.0,29.57,NNE,22,4.0,5.0,100,0.00,,,0.00,Weather View 32 v70,2013-01-06 07:53:00,
2013-01-06 02:58:00,5.0,5.0,29.60,North,360,2.0,6.0,100,0.00,,,0.00,Weather View 32 v70,2013-01-06 07:58:00,
2013-01-06 03:03:00,4.0,4.0,29.60,North,360,3.0,6.0,100,0.00,,,0.00,Weather View 32 v70,2013-01-06 08:03:00,
2013-01-06 03:08:00,5.0,5.0,29.59,North,360,0.0,6.0,100,0.00,,,0.00,Weather View 32 v70,2013-01-06 08:08:00,
2013-01-06 03:13:00,5.0,5.0,29.59,North,360,2.0,6.0,100,0.00,,,0.00,Weather View 32 v70,2013-01-06 08:13:00,
2013-01-06 03:18:00,5.0,5.0,29.61,North,360,1.0,6.0,100,0.00,,,0.00,Weather View 32 v70,2013-01-06 08:18:00,
2013-01-06 03:23:00,5.0,5.0,29.61,North,360,1.0,6.0,100,0.00,,,0.00,Weather View 32 v70,2013-01-06 08:23:00,
2013-01-06 03:28:00,5.0,5.0,29.61,NNE,22,1.0,6.0,100,0.00,,,0.00,Weather View 32 v70,2013-01-06 08:28:00,
2013-01-06 03:33:00,5.0,5.0,29.61,NNE,22,3.0,6.0,100,0.00,,,0.00,Weather View 32 v70,2013-01-06 08:33:00,
2013-01-06 03:38:00,5.0,5.0,29.61,NNE,22,0.0,6.0,100,0.00,,,0.00,Weather View 32 v70,2013-01-06 08:38:00,
2013-01-06 03:43:00,5.0,5.0,29.61,NNE,22,1.0,6.0,100,0.00,,,0.00,Weather View 32 v70,2013-01-06 08:43:00,
2013-01-06 03:48:00,5.0,5.0,29.61,NNE,22,0.0,6.0,100,0.00,,,0.00,Weather View 32 v70,2013-01-06 08:48:00,
2013-01-06 03:53:00,5.0,5.0,29.61,NNE,22,1.0,6.0,100,0.00,,,0.00,Weather View 32 v70,2013-01-06 08:53:00,
2013-01-06 03:58:00,6.0,6.0,29.55,NNE,22,0.0,5.0,100,0.00,,,0.00,Weather View 32 v70,2013-01-06 08:58:00,
2013-01-06 04:03:00,6.0,6.0,29.58,NNE,22,0.0,4.0,100,0.00,,,0.00,Weather View 32 v70,2013-01-06 09:03:00,
2013-01-06 04:08:00,6.0,6.0,29.57,NNE,22,0.0,4.0,100,0.00,,,0.00,Weather View 32 v70,2013-01-06 09:08:00,
2013-01-06 04:13:00,6.0,6.0,29.57,NNE,22,0.0,4.0,100,0.00,,,0.00,Weather View 32 v70,2013-01-06 09:13:00,
2013-01-06 04:18:00,6.0,6.0,29.57,NNE,22,4.0,4.0,100,0.00,,,0.00,Weather View 32 v70,2013-01-06 09:18:00,
2013-01-06 04:23:00,7.0,7.0,29.56,NW,315,0.0,5.0,100,0.00,,,0.00,Weather View 32 v70,2013-01-06 09:23:00,
2013-01-06 04:28:00,7.0,7.0,29.56,NW,315,0.0,5.0,100,0.00,,,0.00,Weather View 32 v70,2013-01-06 09:28:00,
2013-01-06 04:33:00,7.0,7.0,29.53,NNE,22,0.0,5.0,100,0.00,,,0.00,Weather View 32 v70,2013-01-06 09:33:00,
2013-01-06 04:38:00,7.0,7.0,29.56,NW,315,3.0,5.0,100,0.00,,,0.00,Weather View 32 v70,2013-01-06 09:38:00,
2013-01-06 04:43:00,7.0,7.0,29.56,NW,315,3.0,5.0,100,0.00,,,0.00,Weather View 32 v70,2013-01-06 09:43:00,
2013-01-06 04:48:00,7.0,7.0,29.56,NW,315,0.0,5.0,100,0.00,,,0.00,Weather View 32 v70,2013-01-06 09:48:00,
2013-01-06 04:53:00,8.0,8.0,29.57,WNW,292,0.0,5.0,100,0.00,,,0.00,Weather View 32 v70,2013-01-06 09:53:00,
2013-01-06 04:58:00,8.0,8.0,29.57,WNW,292,0.0,5.0,100,0.00,,,0.00,Weather View 32 v70,2013-01-06 09:58:00,
2013-01-06 05:03:00,8.0,8.0,29.58,NNW,337,1.0,5.0,100,0.00,,,0.00,Weather View 32 v70,2013-01-06 10:03:00,
2013-01-06 05:08:00,8.0,8.0,29.56,NNW,337,1.0,5.0,100,0.00,,,0.00,Weather View 32 v70,2013-01-06 10:08:00,
2013-01-06 05:13:00,8.0,8.0,29.59,NNW,337,0.0,5.0,100,0.00,,,0.00,Weather View 32 v70,2013-01-06 10:13:00,
2013-01-06 05:18:00,8.0,8.0,29.59,NNE,22,3.0,5.0,100,0.00,,,0.00,Weather View 32 v70,2013-01-06 10:18:00,
2013-01-06 05:23:00,8.0,8.0,29.59,ENE,67,1.0,6.0,100,0.00,,,0.00,Weather View 32 v70,2013-01-06 10:23:00,
2013-01-06 05:28:00,8.0,8.0,29.58,North,360,0.0,6.0,100,0.00,,,0.00,Weather View 32 v70,2013-01-06 10:28:00,
2013-01-06 05:33:00,8.0,8.0,29.58,NNW,337,5.0,6.0,100,0.00,,,0.00,Weather View 32 v70,2013-01-06 10:33:00,
2013-01-06 05:38:00,8.0,8.0,29.57,NNW,337,1.0,6.0,100,0.00,,,0.00,Weather View 32 v70,2013-01-06 10:38:00,
2013-01-06 05:43:00,8.0,8.0,29.58,North,360,0.0,6.0,100,0.00,,,0.00,Weather View 32 v70,2013-01-06 10:43:00,
2013-01-06 05:48:00,8.0,8.0,29.57,North,360,0.0,6.0,100,0.00,,,0.00,Weather View 32 v70,2013-01-06 10:48:00,
2013-01-06 05:53:00,9.0,9.0,29.57,NNW,337,1.0,6.0,100,0.00,,,0.00,Weather View 32 v70,2013-01-06 10:53:00,
2013-01-06 05:58:00,9.0,9.0,29.57,NE,45,5.0,6.0,100,0.00,,,0.00,Weather View 32 v70,2013-01-06 10:58:00,
2013-01-06 06:03:00,9.0,9.0,29.57,NNE,22,1.0,6.0,100,0.00,,,0.00,Weather View 32 v70,2013-01-06 11:03:00,
2013-01-06 06:08:00,9.0,9.0,29.57,North,360,2.0,6.0,100,0.00,,,0.00,Weather View 32 v70,2013-01-06 11:08:00,
2013-01-06 06:13:00,9.0,9.0,29.57,North,360,2.0,6.0,100,0.00,,,0.00,Weather View 32 v70,2013-01-06 11:13:00,
2013-01-06 06:18:00,9.0,9.0,29.57,North,360,4.0,6.0,100,0.00,,,0.00,Weather View 32 v70,2013-01-06 11:18:00,
2013-01-06 06:23:00,9.0,9.0,29.56,NW,315,2.0,6.0,100,0.00,,,0.00,Weather View 32 v70,2013-01-06 11:23:00,
2013-01-06 06:28:00,10.0,10.0,29.56,NW,315,0.0,6.0,100,0.00,,,0.00,Weather View 32 v70,2013-01-06 11:28:00,
2013-01-06 06:33:00,10.0,10.0,29.53,NE,45,1.0,6.0,100,0.00,,,0.00,Weather View 32 v70,2013-01-06 11:33:00,
2013-01-06 06:38:00,10.0,10.0,29.56,North,360,1.0,6.0,100,0.00,,,0.00,Weather View 32 v70,2013-01-06 11:38:00,
2013-01-06 06:43:00,10.0,10.0,29.56,North,360,1.0,6.0,100,0.00,,,0.00,Weather View 32 v70,2013-01-06 11:43:00,
2013-01-06 06:48:00,10.0,10.0,29.56,North,360,2.0,6.0,100,0.00,,,0.00,Weather View 32 v70,2013-01-06 11:48:00,
2013-01-06 06:53:00,11.0,10.8,29.55,ESE,112,3.0,6.0,99,0.00,,,0.00,Weather View 32 v70,2013-01-06 11:53:00,
2013-01-06 06:58:00,11.0,10.5,29.55,NNE,22,1.0,6.0,98,0.00,,,0.00,Weather View 32 v70,2013-01-06 11:58:00,
2013-01-06 07:03:00,11.0,10.5,29.55,NW,315,5.0,6.0,98,0.00,,,0.00,Weather View 32 v70,2013-01-06 12:03:00,
2013-01-06 07:08:00,11.0,10.3,29.55,WNW,292,3.0,8.0,97,0.00,,,0.00,Weather View 32 v70,2013-01-06 12:08:00,
2013-01-06 07:13:00,11.0,10.3,29.55,North,360,1.0,8.0,97,0.00,,,0.00,Weather View 32 v70,2013-01-06 12:13:00,
2013-01-06 07:18:00,12.0,11.3,29.55,NNW,337,6.0,8.0,97,0.00,,,0.00,Weather View 32 v70,2013-01-06 12:18:00,
2013-01-06 07:23:00,12.0,11.3,29.52,NNW,337,6.0,8.0,97,0.00,,,0.00,Weather View 32 v70,2013-01-06 12:23:00,
2013-01-06 07:28:00,12.0,11.3,29.52,NW,315,2.0,8.0,97,0.00,,,0.00,Weather View 32 v70,2013-01-06 12:28:00,
2013-01-06 07:33:00,12.0,11.3,29.51,NW,315,5.0,8.0,97,0.00,,,0.00,Weather View 32 v70,2013-01-06 12:33:00,
2013-01-06 07:38:00,12.0,11.3,29.54,NNW,337,2.0,8.0,97,0.00,,,0.00,Weather View 32 v70,2013-01-06 12:38:00,
2013-01-06 07:43:00,12.0,11.5,29.54,WNW,292,4.0,8.0,98,0.00,,,0.00,Weather View 32 v70,2013-01-06 12:43:00,
2013-01-06 07:48:00,12.0,11.5,29.51,NW,315,5.0,8.0,98,0.00,,,0.00,Weather View 32 v70,2013-01-06 12:48:00,
2013-01-06 07:53:00,12.0,11.5,29.54,NNE,22,3.0,8.0,98,0.00,,,0.00,Weather View 32 v70,2013-01-06 12:53:00,
2013-01-06 07:58:00,12.0,11.5,29.54,NW,315,6.0,8.0,98,0.00,,,0.00,Weather View 32 v70,2013-01-06 12:58:00,
2013-01-06 08:03:00,12.0,11.8,29.54,NNW,337,3.0,8.0,99,0.00,,,0.00,Weather View 32 v70,2013-01-06 13:03:00,
2013-01-06 08:08:00,12.0,11.8,29.53,NNW,337,4.0,7.0,99,0.00,,,0.00,Weather View 32 v70,2013-01-06 13:08:00,
2013-01-06 08:13:00,12.0,12.0,29.53,NNW,337,1.0,7.0,100,0.00,,,0.00,Weather View 32 v70,2013-01-06 13:13:00,
2013-01-06 08:18:00,12.0,12.0,29.55,NNW,337,4.0,7.0,100,0.00,,,0.00,Weather View 32 v70,2013-01-06 13:18:00,
2013-01-06 08:23:00,12.0,12.0,29.54,NW,315,3.0,7.0,100,0.00,,,0.00,Weather View 32 v70,2013-01-06 13:23:00,
2013-01-06 08:28:00,12.0,12.0,29.54,NW,315,3.0,7.0,100,0.00,,,0.00,Weather View 32 v70,2013-01-06 13:28:00,
2013-01-06 08:33:00,13.0,13.0,29.54,West,270,0.0,7.0,100,0.00,,,0.00,Weather View 32 v70,2013-01-06 13:33:00,
2013-01-06 08:38:00,13.0,13.0,29.54,NNE,22,1.0,7.0,100,0.00,,,0.00,Weather View 32 v70,2013-01-06 13:38:00,
2013-01-06 08:43:00,13.0,13.0,29.53,NNW,337,7.0,8.0,100,0.00,,,0.00,Weather View 32 v70,2013-01-06 13:43:00,
2013-01-06 08:48:00,13.0,13.0,29.51,NW,315,5.0,9.0,100,0.00,,,0.00,Weather View 32 v70,2013-01-06 13:48:00,
2013-01-06 08:53:00,13.0,13.0,29.53,NNW,337,5.0,9.0,100,0.00,,,0.00,Weather View 32 v70,2013-01-06 13:53:00,
2013-01-06 08:58:00,13.0,13.0,29.54,NNW,337,6.0,9.0,100,0.00,,,0.00,Weather View 32 v70,2013-01-06 13:58:00,
2013-01-06 09:03:00,13.0,13.0,29.53,NW,315,9.0,9.0,100,0.00,,,0.00,Weather View 32 v70,2013-01-06 14:03:00,
2013-01-06 09:08:00,13.0,13.0,29.53,WNW,292,6.0,9.0,100,0.00,,,0.00,Weather View 32 v70,2013-01-06 14:08:00,
2013-01-06 09:13:00,13.0,13.0,29.53,NNW,337,1.0,10.0,100,0.00,,,0.00,Weather View 32 v70,2013-01-06 14:13:00,
2013-01-06 09:18:00,13.0,13.0,29.53,North,360,5.0,10.0,100,0.00,,,0.00,Weather View 32 v70,2013-01-06 14:18:00,
2013-01-06 09:23:00,14.0,14.0,29.53,NNW,337,5.0,10.0,100,0.00,,,0.00,Weather View 32 v70,2013-01-06 14:23:00,
2013-01-06 09:28:00,14.0,14.0,29.52,NW,315,8.0,10.0,100,0.00,,,0.00,Weather View 32 v70,2013-01-06 14:28:00,
2013-01-06 09:33:00,14.0,14.0,29.54,NW,315,7.0,10.0,100,0.00,,,0.00,Weather View 32 v70,2013-01-06 14:33:00,
2013-01-06 09:38:00,14.0,14.0,29.53,NW,315,7.0,10.0,100,0.00,,,0.00,Weather View 32 v70,2013-01-06 14:38:00,
2013-01-06 09:43:00,14.0,14.0,29.52,NNE,22,5.0,10.0,100,0.00,,,0.00,Weather View 32 v70,2013-01-06 14:43:00,
2013-01-06 09:48:00,15.0,15.0,29.52,NW,315,5.0,10.0,100,0.00,,,0.00,Weather View 32 v70,2013-01-06 14:48:00,
2013-01-06 09:53:00,15.0,15.0,29.53,North,360,4.0,10.0,100,0.00,,,0.00,Weather View 32 v70,2013-01-06 14:53:00,
2013-01-06 09:58:00,15.0,15.0,29.53,WNW,292,3.0,10.0,100,0.00,,,0.00,Weather View 32 v70,2013-01-06 14:58:00,
2013-01-06 10:03:00,16.0,16.0,29.53,WNW,292,1.0,10.0,100,0.00,,,0.00,Weather View 32 v70,2013-01-06 15:03:00,
2013-01-06 10:08:00,16.0,16.0,29.52,NNW,337,1.0,10.0,100,0.00,,,0.00,Weather View 32 v70,2013-01-06 15:08:00,
2013-01-06 10:13:00,16.0,16.0,29.51,ESE,112,0.0,10.0,100,0.00,,,0.00,Weather View 32 v70,2013-01-06 15:13:00,
2013-01-06 10:18:00,17.0,17.0,29.50,NW,315,8.0,10.0,100,0.00,,,0.00,Weather View 32 v70,2013-01-06 15:18:00,
2013-01-06 10:23:00,17.0,17.0,29.52,NNE,22,5.0,10.0,100,0.00,,,0.00,Weather View 32 v70,2013-01-06 15:23:00,
2013-01-06 10:28:00,17.0,17.0,29.48,SSE,157,2.0,10.0,100,0.00,,,0.00,Weather View 32 v70,2013-01-06 15:28:00,
2013-01-06 10:33:00,17.0,17.0,29.51,West,270,6.0,10.0,100,0.00,,,0.00,Weather View 32 v70,2013-01-06 15:33:00,
2013-01-06 10:38:00,17.0,17.0,29.50,NNW,337,6.0,10.0,100,0.00,,,0.00,Weather View 32 v70,2013-01-06 15:38:00,
2013-01-06 10:43:00,17.0,17.0,29.50,NNE,22,6.0,10.0,100,0.00,,,0.00,Weather View 32 v70,2013-01-06 15:43:00,
2013-01-06 10:48:00,17.0,17.0,29.50,WSW,247,1.0,10.0,100,0.00,,,0.00,Weather View 32 v70,2013-01-06 15:48:00,
2013-01-06 10:53:00,18.0,18.0,29.49,WNW,292,2.0,10.0,100,0.00,,,0.00,Weather View 32 v70,2013-01-06 15:53:00,
2013-01-06 10:58:00,18.0,18.0,29.45,NNW,337,1.0,10.0,100,0.00,,,0.00,Weather View 32 v70,2013-01-06 15:58:00,
2013-01-06 11:03:00,18.0,18.0,29.48,NNW,337,6.0,10.0,100,0.00,,,0.00,Weather View 32 v70,2013-01-06 16:03:00,
2013-01-06 11:08:00,18.0,18.0,29.48,NW,315,7.0,10.0,100,0.00,,,0.00,Weather View 32 v70,2013-01-06 16:08:00,
2013-01-06 11:13:00,18.0,18.0,29.50,NNW,337,4.0,10.0,100,0.00,,,0.00,Weather View 32 v70,2013-01-06 16:13:00,
2013-01-06 11:18:00,19.0,19.0,29.50,NNW,337,2.0,10.0,100,0.00,,,0.00,Weather View 32 v70,2013-01-06 16:18:00,
2013-01-06 11:23:00,19.0,19.0,29.50,North,360,3.0,10.0,100,0.00,,,0.00,Weather View 32 v70,2013-01-06 16:23:00,
2013-01-06 11:28:00,20.0,20.0,29.50,North,360,0.0,10.0,100,0.00,,,0.00,Weather View 32 v70,2013-01-06 16:28:00,
2013-01-06 11:33:00,21.0,21.0,29.50,North,360,3.0,10.0,100,0.00,,,0.00,Weather View 32 v70,2013-01-06 16:33:00,
2013-01-06 11:38:00,21.0,21.0,29.51,North,360,5.0,10.0,100,0.00,,,0.00,Weather View 32 v70,2013-01-06 16:38:00,
2013-01-06 11:43:00,21.0,21.0,29.51,NW,315,4.0,10.0,100,0.00,,,0.00,Weather View 32 v70,2013-01-06 16:43:00,
2013-01-06 11:48:00,22.0,21.5,29.52,West,270,3.0,9.0,98,0.00,,,0.00,Weather View 32 v70,2013-01-06 16:48:00,
2013-01-06 11:53:00,22.0,21.5,29.52,NNE,22,2.0,9.0,98,0.00,,,0.00,Weather View 32 v70,2013-01-06 16:53:00,
2013-01-06 11:58:00,23.0,22.3,29.50,NW,315,5.0,9.0,97,0.00,,,0.00,Weather View 32 v70,2013-01-06 16:58:00,
2013-01-06 12:03:00,23.0,22.0,29.51,NNW,337,0.0,9.0,96,0.00,,,0.00,Weather View 32 v70,2013-01-06 17:03:00,
2013-01-06 12:08:00,23.0,21.8,29.51,NW,315,5.0,9.0,95,0.00,,,0.00,Weather View 32 v70,2013-01-06 17:08:00,
2013-01-06 12:13:00,23.0,21.8,29.51,NW,315,5.0,8.0,95,0.00,,,0.00,Weather View 32 v70,2013-01-06 17:13:00,
2013-01-06 12:18:00,24.0,22.5,29.53,NW,315,1.0,8.0,94,0.00,,,0.00,Weather View 32 v70,2013-01-06 17:18:00,
2013-01-06 12:23:00,24.0,22.5,29.52,NW,315,3.0,8.0,94,0.00,,,0.00,Weather View 32 v70,2013-01-06 17:23:00,
2013-01-06 12:28:00,24.0,22.3,29.53,NNW,337,5.0,8.0,93,0.00,,,0.00,Weather View 32 v70,2013-01-06 17:28:00,
2013-01-06 12:33:00,24.0,22.5,29.53,NW,315,4.0,8.0,94,0.00,,,0.00,Weather View 32 v70,2013-01-06 17:33:00,
2013-01-06 12:38:00,24.0,22.3,29.53,NW,315,6.0,8.0,93,0.00,,,0.00,Weather View 32 v70,2013-01-06 17:38:00,
2013-01-06 12:43:00,24.0,22.3,29.53,NW,315,4.0,8.0,93,0.00,,,0.00,Weather View 32 v70,2013-01-06 17:43:00,
2013-01-06 12:48:00,25.0,23.0,29.52,NE,45,0.0,7.0,92,0.00,,,0.00,Weather View 32 v70,2013-01-06 17:48:00,
2013-01-06 12:53:00,25.0,22.7,29.51,WNW,292,5.0,7.0,91,0.00,,,0.00,Weather View 32 v70,2013-01-06 17:53:00,
2013-01-06 12:58:00,25.0,23.0,29.49,NNW,337,4.0,7.0,92,0.00,,,0.00,Weather View 32 v70,2013-01-06 17:58:00,
2013-01-06 13:03:00,26.0,23.7,29.49,North,360,2.0,7.0,91,0.00,,,0.00,Weather View 32 v70,2013-01-06 18:03:00,
2013-01-06 13:08:00,26.0,23.5,29.49,NW,315,3.0,7.0,90,0.00,,,0.00,Weather View 32 v70,2013-01-06 18:08:00,
2013-01-06 13:13:00,27.0,23.9,29.48,North,360,2.0,7.0,88,0.00,,,0.00,Weather View 32 v70,2013-01-06 18:13:00,
2013-01-06 13:18:00,27.0,23.6,29.49,North,360,2.0,6.0,87,0.00,,,0.00,Weather View 32 v70,2013-01-06 18:18:00,
2013-01-06 13:23:00,28.0,24.6,29.49,NW,315,2.0,6.0,87,0.00,,,0.00,Weather View 32 v70,2013-01-06 18:23:00,
2013-01-06 13:28:00,27.0,23.4,29.48,NNW,337,5.0,6.0,86,0.00,,,0.00,Weather View 32 v70,2013-01-06 18:28:00,
2013-01-06 13:33:00,27.0,23.6,29.48,North,360,1.0,6.0,87,0.00,,,0.00,Weather View 32 v70,2013-01-06 18:33:00,
2013-01-06 13:38:00,28.0,24.4,29.49,WSW,247,0.0,6.0,86,0.01,,,0.01,Weather View 32 v70,2013-01-06 18:38:00,
2013-01-06 13:43:00,28.0,24.4,29.49,WSW,247,2.0,6.0,86,0.01,,,0.01,Weather View 32 v70,2013-01-06 18:43:00,
2013-01-06 13:48:00,28.0,24.1,29.49,WSW,247,0.0,6.0,85,0.01,,,0.01,Weather View 32 v70,2013-01-06 18:48:00,
2013-01-06 13:53:00,28.0,24.1,29.49,WSW,247,0.0,6.0,85,0.01,,,0.01,Weather View 32 v70,2013-01-06 18:53:00,
2013-01-06 13:58:00,28.0,24.1,29.49,WSW,247,0.0,6.0,85,0.01,,,0.01,Weather View 32 v70,2013-01-06 18:58:00,
2013-01-06 14:03:00,28.0,24.1,29.50,WSW,247,0.0,6.0,85,0.01,,,0.01,Weather View 32 v70,2013-01-06 19:03:00,
2013-01-06 14:08:00,28.0,24.1,29.50,WSW,247,0.0,6.0,85,0.01,,,0.01,Weather View 32 v70,2013-01-06 19:08:00,
2013-01-06 14:13:00,29.0,25.1,29.49,WSW,247,0.0,6.0,85,0.01,,,0.01,Weather View 32 v70,2013-01-06 19:13:00,
2013-01-06 14:18:00,28.0,24.1,29.49,WSW,247,0.0,6.0,85,0.01,,,0.01,Weather View 32 v70,2013-01-06 19:18:00,
2013-01-06 14:23:00,29.0,25.1,29.48,WSW,247,0.0,6.0,85,0.01,,,0.01,Weather View 32 v70,2013-01-06 19:23:00,
2013-01-06 14:28:00,28.0,24.1,29.48,NNW,337,1.0,6.0,85,0.01,,,0.01,Weather View 32 v70,2013-01-06 19:28:00,
2013-01-06 14:33:00,28.0,24.1,29.50,NNW,337,4.0,4.0,85,0.01,,,0.01,Weather View 32 v70,2013-01-06 19:33:00,
2013-01-06 14:38:00,28.0,24.1,29.50,WNW,292,3.0,5.0,85,0.00,,,0.01,Weather View 32 v70,2013-01-06 19:38:00,
2013-01-06 14:43:00,28.0,24.4,29.50,NNW,337,0.0,5.0,86,0.00,,,0.01,Weather View 32 v70,2013-01-06 19:43:00,
2013-01-06 14:48:00,28.0,24.1,29.50,NW,315,2.0,5.0,85,0.00,,,0.01,Weather View 32 v70,2013-01-06 19:48:00,
2013-01-06 14:53:00,28.0,24.1,29.50,NNW,337,0.0,5.0,85,0.00,,,0.01,Weather View 32 v70,2013-01-06 19:53:00,
2013-01-06 14:58:00,28.0,24.4,29.50,NNW,337,3.0,6.0,86,0.01,,,0.02,Weather View 32 v70,2013-01-06 19:58:00,
2013-01-06 15:04:00,27.0,23.4,29.49,North,360,2.0,6.0,86,0.01,,,0.02,Weather View 32 v70,2013-01-06 20:04:00,
2013-01-06 15:09:00,28.0,24.6,29.50,WNW,292,4.0,6.0,87,0.01,,,0.02,Weather View 32 v70,2013-01-06 20:09:00,
2013-01-06 15:11:00,27.0,23.6,29.50,West,270,2.0,6.0,87,0.01,,,0.02,Weather View 32 v70,2013-01-06 20:11:00,
2013-01-06 15:13:00,27.0,23.9,29.50,NW,315,2.0,6.0,88,0.01,,,0.02,Weather View 32 v70,2013-01-06 20:13:00,
2013-01-06 15:18:00,27.0,23.9,29.50,WNW,292,3.0,6.0,88,0.01,,,0.02,Weather View 32 v70,2013-01-06 20:18:00,
2013-01-06 15:23:00,27.0,23.9,29.50,West,270,2.0,6.0,88,0.01,,,0.02,Weather View 32 v70,2013-01-06 20:23:00,
2013-01-06 15:28:00,27.0,23.9,29.50,WNW,292,4.0,6.0,88,0.01,,,0.02,Weather View 32 v70,2013-01-06 20:28:00,
2013-01-06 15:33:00,27.0,23.9,29.49,NNW,337,3.0,6.0,88,0.01,,,0.02,Weather View 32 v70,2013-01-06 20:33:00,
2013-01-06 15:38:00,27.0,23.9,29.49,NNE,22,1.0,6.0,88,0.01,,,0.02,Weather View 32 v70,2013-01-06 20:38:00,
2013-01-06 15:43:00,27.0,23.9,29.49,NNE,22,1.0,7.0,88,0.01,,,0.02,Weather View 32 v70,2013-01-06 20:43:00,
2013-01-06 15:48:00,26.0,23.2,29.48,NNW,337,0.0,7.0,89,0.01,,,0.02,Weather View 32 v70,2013-01-06 20:48:00,
2013-01-06 15:55:00,26.0,23.2,29.49,North,360,0.0,7.0,89,0.01,,,0.02,Weather View 32 v70,2013-01-06 20:55:00,
2013-01-06 16:00:00,25.0,22.0,29.48,North,360,0.0,7.0,88,0.00,,,0.02,Weather View 32 v70,2013-01-06 21:00:00,
2013-01-06 16:08:00,24.0,21.0,29.47,North,360,0.0,7.0,88,0.00,,,0.02,Weather View 32 v70,2013-01-06 21:08:00,
2013-01-06 16:13:00,23.0,20.2,29.46,North,360,0.0,7.0,89,0.00,,,0.02,Weather View 32 v70,2013-01-06 21:13:00,
2013-01-06 16:18:00,22.0,19.5,29.45,North,360,0.0,7.0,90,0.00,,,0.02,Weather View 32 v70,2013-01-06 21:18:00,
2013-01-06 16:23:00,22.0,19.8,29.45,North,360,2.0,7.0,91,0.00,,,0.02,Weather View 32 v70,2013-01-06 21:23:00,
2013-01-06 16:28:00,22.0,20.5,29.44,North,360,2.0,7.0,94,0.00,,,0.02,Weather View 32 v70,2013-01-06 21:28:00,
2013-01-06 16:33:00,22.0,21.0,29.44,North,360,0.0,7.0,96,0.00,,,0.02,Weather View 32 v70,2013-01-06 21:33:00,
2013-01-06 16:38:00,21.0,20.0,29.44,North,360,0.0,7.0,96,0.00,,,0.02,Weather View 32 v70,2013-01-06 21:38:00,
2013-01-06 16:43:00,21.0,20.0,29.43,North,360,0.0,4.0,96,0.00,,,0.02,Weather View 32 v70,2013-01-06 21:43:00,
2013-01-06 16:48:00,20.0,19.3,29.45,North,360,0.0,4.0,97,0.00,,,0.02,Weather View 32 v70,2013-01-06 21:48:00,
2013-01-06 16:53:00,20.0,19.5,29.45,North,360,0.0,4.0,98,0.00,,,0.02,Weather View 32 v70,2013-01-06 21:53:00,
2013-01-06 16:58:00,20.0,19.8,29.44,North,360,0.0,4.0,99,0.00,,,0.02,Weather View 32 v70,2013-01-06 21:58:00,
2013-01-06 17:03:00,19.0,19.0,29.44,North,360,0.0,4.0,100,0.00,,,0.02,Weather View 32 v70,2013-01-06 22:03:00,
2013-01-06 17:08:00,19.0,19.0,29.44,NNE,22,4.0,5.0,100,0.00,,,0.02,Weather View 32 v70,2013-01-06 22:08:00,
2013-01-06 17:13:00,19.0,19.0,29.44,NNE,22,2.0,5.0,100,0.00,,,0.02,Weather View 32 v70,2013-01-06 22:13:00,
2013-01-06 17:18:00,19.0,19.0,29.45,NNE,22,0.0,5.0,100,0.00,,,0.02,Weather View 32 v70,2013-01-06 22:18:00,
2013-01-06 17:23:00,18.0,18.0,29.44,NNE,22,0.0,5.0,100,0.00,,,0.02,Weather View 32 v70,2013-01-06 22:23:00,
2013-01-06 17:28:00,18.0,18.0,29.43,NNE,22,0.0,5.0,100,0.00,,,0.02,Weather View 32 v70,2013-01-06 22:28:00,
2013-01-06 17:33:00,18.0,18.0,29.42,NNE,22,0.0,5.0,100,0.00,,,0.02,Weather View 32 v70,2013-01-06 22:33:00,
2013-01-06 17:38:00,17.0,17.0,29.42,NNE,22,0.0,5.0,100,0.00,,,0.02,Weather View 32 v70,2013-01-06 22:38:00,
2013-01-06 17:43:00,17.0,17.0,29.41,NW,315,0.0,5.0,100,0.00,,,0.02,Weather View 32 v70,2013-01-06 22:43:00,
2013-01-06 17:48:00,17.0,17.0,29.39,NNW,337,1.0,5.0,100,0.00,,,0.02,Weather View 32 v70,2013-01-06 22:48:00,
2013-01-06 17:53:00,17.0,17.0,29.42,NNW,337,2.0,5.0,100,0.00,,,0.02,Weather View 32 v70,2013-01-06 22:53:00,
2013-01-06 17:58:00,18.0,18.0,29.42,North,360,2.0,5.0,100,0.00,,,0.02,Weather View 32 v70,2013-01-06 22:58:00,
2013-01-06 18:03:00,17.0,17.0,29.42,North,360,1.0,5.0,100,0.00,,,0.02,Weather View 32 v70,2013-01-06 23:03:00,
2013-01-06 18:08:00,17.0,17.0,29.41,North,360,0.0,5.0,100,0.00,,,0.02,Weather View 32 v70,2013-01-06 23:08:00,
2013-01-06 18:13:00,17.0,17.0,29.41,North,360,0.0,5.0,100,0.00,,,0.02,Weather View 32 v70,2013-01-06 23:13:00,
2013-01-06 18:18:00,17.0,17.0,29.39,North,360,0.0,5.0,100,0.00,,,0.02,Weather View 32 v70,2013-01-06 23:18:00,
2013-01-06 18:23:00,16.0,16.0,29.40,North,360,0.0,5.0,100,0.00,,,0.02,Weather View 32 v70,2013-01-06 23:23:00,
2013-01-06 18:28:00,16.0,16.0,29.40,North,360,1.0,5.0,100,0.00,,,0.02,Weather View 32 v70,2013-01-06 23:28:00,
2013-01-06 18:33:00,16.0,16.0,29.43,North,360,0.0,5.0,100,0.00,,,0.02,Weather View 32 v70,2013-01-06 23:33:00,
2013-01-06 18:39:00,16.0,16.0,29.43,North,360,1.0,5.0,100,0.00,,,0.02,Weather View 32 v70,2013-01-06 23:39:00,
2013-01-06 18:44:00,16.0,16.0,29.43,North,360,0.0,5.0,100,0.00,,,0.02,Weather View 32 v70,2013-01-06 23:44:00,
2013-01-06 18:49:00,16.0,16.0,29.44,North,360,0.0,5.0,100,0.00,,,0.02,Weather View 32 v70,2013-01-06 23:49:00,
2013-01-06 18:54:00,16.0,16.0,29.44,North,360,0.0,5.0,100,0.00,,,0.02,Weather View 32 v70,2013-01-06 23:54:00,
2013-01-06 18:59:00,16.0,16.0,29.44,North,360,0.0,4.0,100,0.00,,,0.02,Weather View 32 v70,2013-01-06 23:59:00,
2013-01-06 19:04:00,16.0,16.0,29.44,North,360,0.0,4.0,100,0.00,,,0.02,Weather View 32 v70,2013-01-07 00:04:00,
2013-01-06 19:09:00,16.0,16.0,29.44,North,360,0.0,4.0,100,0.00,,,0.02,Weather View 32 v70,2013-01-07 00:09:00,
2013-01-06 19:14:00,16.0,16.0,29.42,North,360,0.0,4.0,100,0.00,,,0.02,Weather View 32 v70,2013-01-07 00:14:00,
2013-01-06 19:19:00,16.0,16.0,29.42,North,360,0.0,4.0,100,0.00,,,0.02,Weather View 32 v70,2013-01-07 00:19:00,
2013-01-06 19:24:00,16.0,16.0,29.45,North,360,0.0,4.0,100,0.00,,,0.02,Weather View 32 v70,2013-01-07 00:24:00,
2013-01-06 19:29:00,16.0,16.0,29.46,North,360,0.0,4.0,100,0.00,,,0.02,Weather View 32 v70,2013-01-07 00:29:00,
2013-01-06 19:34:00,16.0,16.0,29.46,North,360,0.0,4.0,100,0.00,,,0.02,Weather View 32 v70,2013-01-07 00:34:00,
2013-01-06 19:39:00,17.0,17.0,29.45,North,360,0.0,4.0,100,0.00,,,0.02,Weather View 32 v70,2013-01-07 00:39:00,
2013-01-06 19:44:00,17.0,17.0,29.45,North,360,0.0,3.0,100,0.00,,,0.02,Weather View 32 v70,2013-01-07 00:44:00,
2013-01-06 19:49:00,17.0,17.0,29.46,North,360,0.0,0.0,100,0.00,,,0.02,Weather View 32 v70,2013-01-07 00:49:00,
2013-01-06 19:54:00,17.0,17.0,29.46,North,360,1.0,1.0,100,0.00,,,0.02,Weather View 32 v70,2013-01-07 00:54:00,
2013-01-06 19:59:00,17.0,17.0,29.46,North,360,3.0,3.0,100,0.00,,,0.02,Weather View 32 v70,2013-01-07 00:59:00,
2013-01-06 20:04:00,17.0,17.0,29.46,North,360,0.0,3.0,100,0.00,,,0.02,Weather View 32 v70,2013-01-07 01:04:00,
2013-01-06 20:09:00,17.0,17.0,29.47,North,360,2.0,3.0,100,0.00,,,0.02,Weather View 32 v70,2013-01-07 01:09:00,
2013-01-06 20:14:00,17.0,17.0,29.47,North,360,1.0,3.0,100,0.00,,,0.02,Weather View 32 v70,2013-01-07 01:14:00,
2013-01-06 20:19:00,18.0,18.0,29.47,North,360,0.0,4.0,100,0.00,,,0.02,Weather View 32 v70,2013-01-07 01:19:00,
2013-01-06 20:24:00,18.0,18.0,29.48,North,360,1.0,4.0,100,0.00,,,0.02,Weather View 32 v70,2013-01-07 01:24:00,
2013-01-06 20:29:00,18.0,18.0,29.48,North,360,0.0,4.0,100,0.00,,,0.02,Weather View 32 v70,2013-01-07 01:29:00,
2013-01-06 20:34:00,18.0,18.0,29.48,North,360,0.0,4.0,100,0.00,,,0.02,Weather View 32 v70,2013-01-07 01:34:00,
2013-01-06 20:39:00,17.0,17.0,29.47,North,360,0.0,4.0,100,0.00,,,0.02,Weather View 32 v70,2013-01-07 01:39:00,
2013-01-06 20:44:00,17.0,17.0,29.48,North,360,2.0,4.0,100,0.00,,,0.02,Weather View 32 v70,2013-01-07 01:44:00,
2013-01-06 20:49:00,17.0,17.0,29.45,North,360,0.0,4.0,100,0.00,,,0.02,Weather View 32 v70,2013-01-07 01:49:00,
2013-01-06 20:54:00,17.0,17.0,29.48,North,360,0.0,4.0,100,0.00,,,0.02,Weather View 32 v70,2013-01-07 01:54:00,
2013-01-06 20:59:00,18.0,18.0,29.48,North,360,0.0,4.0,100,0.00,,,0.02,Weather View 32 v70,2013-01-07 01:59:00,
2013-01-06 21:04:00,18.0,18.0,29.48,North,360,2.0,4.0,100,0.00,,,0.02,Weather View 32 v70,2013-01-07 02:04:00,
2013-01-06 21:10:00,18.0,18.0,29.49,North,360,2.0,4.0,100,0.00,,,0.02,Weather View 32 v70,2013-01-07 02:10:00,
2013-01-06 21:15:00,18.0,18.0,29.49,North,360,3.0,4.0,100,0.00,,,0.02,Weather View 32 v70,2013-01-07 02:15:00,
2013-01-06 21:20:00,18.0,18.0,29.49,North,360,0.0,4.0,100,0.00,,,0.02,Weather View 32 v70,2013-01-07 02:20:00,
2013-01-06 21:25:00,18.0,18.0,29.49,North,360,3.0,5.0,100,0.00,,,0.02,Weather View 32 v70,2013-01-07 02:25:00,
2013-01-06 21:30:00,18.0,18.0,29.48,North,360,0.0,5.0,100,0.00,,,0.02,Weather View 32 v70,2013-01-07 02:30:00,
2013-01-06 21:35:00,18.0,18.0,29.48,North,360,0.0,5.0,100,0.00,,,0.02,Weather View 32 v70,2013-01-07 02:35:00,
2013-01-06 21:40:00,18.0,18.0,29.49,North,360,2.0,5.0,100,0.00,,,0.02,Weather View 32 v70,2013-01-07 02:40:00,
2013-01-06 21:45:00,18.0,18.0,29.49,North,360,2.0,5.0,100,0.00,,,0.02,Weather View 32 v70,2013-01-07 02:45:00,
2013-01-06 21:50:00,18.0,18.0,29.48,North,360,2.0,5.0,100,0.00,,,0.02,Weather View 32 v70,2013-01-07 02:50:00,
2013-01-06 21:55:00,17.0,17.0,29.48,North,360,1.0,5.0,100,0.00,,,0.02,Weather View 32 v70,2013-01-07 02:55:00,
2013-01-06 22:00:00,17.0,17.0,29.48,North,360,3.0,5.0,100,0.00,,,0.02,Weather View 32 v70,2013-01-07 03:00:00,
2013-01-06 22:05:00,17.0,17.0,29.48,North,360,1.0,5.0,100,0.00,,,0.02,Weather View 32 v70,2013-01-07 03:05:00,
2013-01-06 22:10:00,17.0,17.0,29.48,North,360,1.0,5.0,100,0.00,,,0.02,Weather View 32 v70,2013-01-07 03:10:00,
2013-01-06 22:15:00,17.0,17.0,29.49,North,360,1.0,5.0,100,0.00,,,0.02,Weather View 32 v70,2013-01-07 03:15:00,
2013-01-06 22:20:00,18.0,18.0,29.49,North,360,2.0,5.0,100,0.00,,,0.02,Weather View 32 v70,2013-01-07 03:20:00,
2013-01-06 22:25:00,18.0,18.0,29.48,North,360,0.0,5.0,100,0.00,,,0.02,Weather View 32 v70,2013-01-07 03:25:00,
2013-01-06 22:30:00,18.0,18.0,29.49,North,360,2.0,5.0,100,0.00,,,0.02,Weather View 32 v70,2013-01-07 03:30:00,
2013-01-06 22:35:00,18.0,18.0,29.50,North,360,2.0,5.0,100,0.00,,,0.02,Weather View 32 v70,2013-01-07 03:35:00,
2013-01-06 22:40:00,18.0,18.0,29.49,North,360,3.0,5.0,100,0.00,,,0.02,Weather View 32 v70,2013-01-07 03:40:00,
2013-01-06 22:45:00,18.0,18.0,29.49,North,360,0.0,5.0,100,0.00,,,0.02,Weather View 32 v70,2013-01-07 03:45:00,
2013-01-06 22:50:00,18.0,18.0,29.51,North,360,3.0,5.0,100,0.00,,,0.02,Weather View 32 v70,2013-01-07 03:50:00,
2013-01-06 22:55:00,18.0,18.0,29.51,NNW,337,0.0,5.0,100,0.00,,,0.02,Weather View 32 v70,2013-01-07 03:55:00,
2013-01-06 23:00:00,18.0,18.0,29.51,NNW,337,0.0,5.0,100,0.00,,,0.02,Weather View 32 v70,2013-01-07 04:00:00,
2013-01-06 23:05:00,18.0,18.0,29.49,North,360,0.0,5.0,100,0.00,,,0.02,Weather View 32 v70,2013-01-07 04:05:00,
2013-01-06 23:10:00,18.0,18.0,29.50,North,360,2.0,5.0,100,0.00,,,0.02,Weather View 32 v70,2013-01-07 04:10:00,
2013-01-06 23:15:00,18.0,18.0,29.49,North,360,2.0,5.0,100,0.00,,,0.02,Weather View 32 v70,2013-01-07 04:15:00,
2013-01-06 23:20:00,18.0,18.0,29.48,NNW,337,0.0,5.0,100,0.00,,,0.02,Weather View 32 v70,2013-01-07 04:20:00,
2013-01-06 23:25:00,18.0,18.0,29.48,NNW,337,2.0,6.0,100,0.00,,,0.02,Weather View 32 v70,2013-01-07 04:25:00,
2013-01-06 23:30:00,19.0,19.0,29.49,NE,45,6.0,8.0,100,0.00,,,0.02,Weather View 32 v70,2013-01-07 04:30:00,
2013-01-06 23:35:00,19.0,19.0,29.49,NNE,22,2.0,9.0,100,0.00,,,0.02,Weather View 32 v70,2013-01-07 04:35:00,
2013-01-06 23:40:00,20.0,20.0,29.50,NE,45,3.0,9.0,100,0.00,,,0.02,Weather View 32 v70,2013-01-07 04:40:00,
2013-01-06 23:45:00,20.0,20.0,29.50,NE,45,5.0,9.0,100,0.00,,,0.02,Weather View 32 v70,2013-01-07 04:45:00,
2013-01-06 23:50:00,20.0,20.0,29.50,NNE,22,3.0,9.0,100,0.00,,,0.02,Weather View 32 v70,2013-01-07 04:50:00,
2013-01-06 23:55:00,20.0,20.0,29.50,NNE,22,4.0,9.0,100,0.00,,,0.02,Weather View 32 v70,2013-01-07 04:55:00,